{"data":{"norad_id":56958,"epoch":"2026-05-25T03:26:26.001600Z","epoch_age_seconds":65952,"freshness":"FRESH","line1":"1 56958U 23084AC  26145.14335650  .00016934  00000+0  33651-3 0  9998","line2":"2 56958  97.6186 292.4982 0006378  27.4275 332.7310 15.47025916164458","mean_motion":15.47025916,"eccentricity":0.0006378,"inclination_deg":97.6186,"raan_deg":292.4982,"arg_perigee_deg":27.4275,"mean_anomaly_deg":332.731,"bstar":0.00033651,"rev_number":16445,"period_min":93.081827854783,"perigee_km":421.09249991545,"apogee_km":429.77113229727,"semimajor_km":6803.5688161064,"source":"CELESTRAK","updated_at":"2026-05-25T13:37:59.787792Z"}}